Powrót do katalogu

STARLINK-2407

AktywnyŁącznośćVLEO
NORAD 47822·PAYLOAD·🇺🇸 United States

Wystrzelony Mar 11, 2021 z Cape Canaveral Space Force Station

Loading…

Następne Przeloty (najbliższe 24 godziny)

TLE

ŚwieżeSource: CelesTrak SupGP

Epoka: Sep 15, 2026, 01:27 UTC

1 47822C 21018AM  26258.06090278  .00026228  00000+0  84357-3 0  2587
2 47822  53.1576  93.9993 0001152  88.9142 265.9893 15.31683418    18

Śledź STARLINK-2407 w czasie rzeczywistym z AllMySat

Download on the App Store